www.pogodaiklimat.ru

Погода и климат >> Архив погоды >> Таиланд >> Ko Lanta


ПОГОДА в Ko Lanta

  • Прогноз погоды в Ko Lanta
  • Монитор погоды в Ko Lanta
  • Климат города

АРХИВ ПОГОДЫ в Ko Lanta

Время (UTC), дата Ветер
(напр.,м/с)
 
Видим.   Явления Облачность Т
(С)
Тd
(С)
f
(%)
Тe
(С)
Тes
(С)
Комфортность P
(гПа)
Po
(гПа)
Тmin
(С)
Tmax
(С)
R
(мм)
R24
(мм)
S
(см)
15 14.10 В 4 10 км зарница 8/3 600 м
[Cb cap Ac lent Cs]
+25.8 +23.2 86 +35 +35 очень
душно
1012.9 1012.1
18 14.10 штиль 0 10 км зарница 8/3 600 м
[Cb cap Ac lent Cs]
+25.1 +23.5 91 +34 +34 очень
душно
1012.0 1011.2
21 14.10 ЮВ 10 10 км зарница 8/3 600 м
[Cb cap Ac lent Cs]
+26.0 +24.6 92 +37 +37 очень
душно
1011.5 1010.7
00 15.10 СВ 4 10 км 6/3 600 м
[Cu med, cong Ac lent Cs]
+24.8 +23.6 93 +34 +34 очень
душно
1011.9 1011.1 +24.4
03 15.10 В 3 10 км 8/3 600 м
[Cu Sc Ac lent Cs]
+28.2 +25.9 87 +42 +47 опасность
перегрева
1013.7 1012.9
06 15.10 В 3 10 км 9/3 600 м
[Cu Sc Ac lent Cs]
+30.7 +25.5 74 +45 +52 опасность
перегрева
1011.4 1010.6
09 15.10 В 7 10 км 10/3 600 м
[Cu Sc Ac lent Cs]
+28.9 +23.7 74 +40 +40 очень
душно
1008.4 1007.6
12 15.10 В 3 10 км 10/3 600 м
[Cu Sc Ac lent Cs]
+28.3 +23.5 75 +38 +38 очень
душно
1010.4 1009.6 +31.5
15 15.10 В 3 10 км 8/3 600 м
[Cu hum Ac lent Cs]
+26.3 +24.4 89 +37 +37 очень
душно
1012.7 1011.9
18 15.10 СВ 3 9000 м слабый дождь 10/3 300 м
[Cu Sc Ac lent Cs]
+25.2 +23.6 91 +34 +34 очень
душно
1011.8 1010.9 32
21 15.10 штиль 0 9000 м слабый дождь 10/3 300 м
[Cu med, cong Ac lent Cs]
+23.6 +22.6 94 +31 +31 очень
душно
1011.0 1010.1 19
00 16.10 СВ 3 10 км {дождь} 10/3 600 м
[Cu Sc Ac lent Cs]
+23.7 +22.7 94 +31 +31 очень
душно
1011.9 1011.1 +23.0 10
03 16.10 В 3 10 км слабый дождь 10/3 600 м
[Cu Sc Ac lent Cs]
+28.6 +26.4 88 +44 +48 опасность
перегрева
1013.1 1012.2 0.2
06 16.10 В 6 10 км {дождь} 10/3 600 м
[Cu Sc Ac lent Cs]
+27.0 +25.4 91 +39 +42 очень
душно
1011.2 1010.4 22
09 16.10 В 6 10 км 10/3 600 м
[Cu Sc Ac lent Cs]
+27.5 +24.9 86 +39 +40 очень
душно
1009.1 1008.3
12 16.10 В 8 10 км 10/3 600 м
[Cu Sc Ac lent Cs]
+27.2 +23.7 81 +37 +37 очень
душно
1011.1 1010.3 +29.3
15 16.10 С 5 10 км 10/3 600 м
[Cu Sc Ac lent Cs]
+25.1 +23.0 88 +33 +33 очень
душно
1013.1 1012.2
18 16.10 С 5 10 км 9/3 600 м
[Cu Sc Ac lent Cs]
+24.1 +22.5 91 +32 +32 очень
душно
1012.6 1011.7
00 17.10 С 6 10 км в посл. час дождь 5/3 600 м
[Cu Sc Ac lent Cs]
+25.1 +23.9 93 +34 +34 очень
душно
1011.6 1010.8 +24.0 0.4
03 17.10 СВ 3 10 км 5/3 600 м
[Cu Sc Ac lent Cs]
+28.0 +25.7 87 +41 +48 опасность
перегрева
1013.6 1012.8
06 17.10 В 6 10 км 5/3 600 м
[Cu hum Ac lent Cs]
+30.3 +25.6 76 +45 +49 опасность
перегрева
1010.9 1010.1
09 17.10 В 5 10 км 10/3 600 м
[Cu Sc Ac lent Cs]
+27.5 +24.9 86 +39 +41 очень
душно
1008.7 1007.9
12 17.10 В 10 10 км {дождь} 10/3 600 м
[Cu Sc Ac lent Cs]
+27.9 +24.1 80 +39 +39 очень
душно
1010.0 1009.2 +31.0 1
15 17.10 В 8 10 км 9/3 600 м
[Cu Sc Ac lent Cs]
+28.1 +26.0 88 +42 +42 опасность
перегрева
1012.3 1011.5
18 17.10 СВ 5 10 км 10/3 600 м
[Cu Sc Ac lent Cs]
+27.7 +23.6 78 +38 +38 очень
душно
1011.5 1010.7
21 17.10 СВ 6 10 км 10/3 600 м
[Cu Sc Ac lent Cs]
+27.0 +24.0 84 +37 +37 очень
душно
1010.2 1009.4
00 18.10 СВ 8 10 км 8/3 600 м
[Cu Sc Ac lent Cs]
+26.7 +23.8 84 +37 +37 очень
душно
1010.8 1009.9 +24.3
03 18.10 В 5 10 км 8/3 600 м
[Cu hum Ac lent Cs]
+29.2 +25.4 80 +43 +46 опасность
перегрева
1012.5 1011.6
06 18.10 З 18 10 км 10/3 600 м
[Cu Sc Ac lent Cs]
+28.4 +25.7 85 +42 +42 опасность
перегрева
1011.0 1010.1
09 18.10 З 19 10 км {дождь} 8/3 600 м
[Cu Sc Ac lent Cs]
+28.2 +25.1 83 +41 +41 опасность
перегрева
1010.3 1009.4 2
12 18.10 В 16 10 км {дождь} 8/3 50 м
[Cu Sc Ac lent Cs]
+26.6 +23.5 83 +36 +36 очень
душно
1010.8 1010.0 +30.2 2
15 18.10 В 14 10 км зарница 9/3 600 м
[Cb cap Ac lent Cs]
+27.5 +24.9 86 +39 +39 очень
душно
1012.7 1011.8
18 18.10 В 17 10 км 10/3 600 м
[Cu Sc Ac lent Cs]
+26.2 +23.6 86 +36 +36 очень
душно
1010.4 1009.6
21 18.10 В 12 10 км 10/3 600 м
[Cu Sc Ac lent Cs]
+26.2 +23.7 86 +36 +36 очень
душно
1009.5 1008.7
00 19.10 В 13 10 км в посл. час дождь 10/3 600 м
[Cu Sc Ac lent Cs]
+26.4 +24.1 87 +37 +37 очень
душно
1011.5 1010.7 +24.0 8
03 19.10 СЗ 10 10 км 8/3 600 м
[Cu Sc Ac lent Cs]
+28.0 +25.1 84 +40 +41 очень
душно
1012.8 1012.0
06 19.10 З 10 10 км 8/3 600 м
[Cu Sc Ac lent Cs]
+28.4 +24.5 79 +40 +40 очень
душно
1010.9 1010.1
09 19.10 З 6 10 км 8/3 600 м
[Cu Sc Ac lent Cs]
+29.1 +24.7 77 +41 +43 опасность
перегрева
1009.0 1008.2
12 19.10 З 5 10 км 8/3 600 м
[Cu Sc Ac lent Cs]
+27.7 +24.8 84 +39 +39 очень
душно
1010.1 1009.3 +30.2
15 19.10 СЗ 5 10 км 8/3 600 м
[Cu Sc Ac lent Cs]
+27.4 +24.7 85 +39 +39 очень
душно
1011.9 1011.1
18 19.10 СВ 3 10 км 8/3 600 м
[Cu Sc Ac lent Cs]
+25.3 +24.1 93 +35 +35 очень
душно
1011.0 1010.2
21 19.10 штиль 0 10 км гроза без осадков 6/3 600 м
[Cb cap Ac lent Cs]
+25.3 +24.1 93 +35 +35 очень
душно
1009.7 1008.9
00 20.10 штиль 0 10 км {гроза} 9/3 600 м
[Cu Sc Ac lent Cs]
+24.9 +24.0 95 +34 +34 очень
душно
1010.9 1010.1 +24.7
03 20.10 В 7 10 км 9/3 600 м
[Cu Sc Ac lent Cs]
+28.5 +25.8 85 +42 +44 опасность
перегрева
1013.1 1012.3
06 20.10 В 11 10 км 8/3 600 м
[Cu med, cong Ac lent Cs]
+29.0 +24.4 76 +41 +41 опасность
перегрева
1010.2 1009.3
09 20.10 СВ 5 12 км 9/3 600 м
[Cu Sc Ac lent Cs]
+27.9 +23.4 77 +38 +39 очень
душно
1008.7 1007.9
12 20.10 ЮВ 3 12 км 9/3 600 м
[Cu Sc Ac lent Cs]
+25.7 +22.4 82 +34 +34 очень
душно
1010.3 1009.5 +30.0
15 20.10 В 5 10 км 9/3 600 м
[Cu Sc Ac lent Cs]
+25.8 +22.8 84 +34 +34 очень
душно
1012.7 1011.9
18 20.10 В 5 10 км 9/3 600 м
[Cu Sc Ac lent Cs]
+27.2 +23.9 82 +37 +37 очень
душно
1011.8 1011.0
21 20.10 штиль 0 10 км 9/3 600 м
[Cu Sc Ac lent Cs]
+25.5 +23.3 88 +34 +34 очень
душно
1010.5 1009.7
00 21.10 В 4 10 км 9/3 600 м
[Cu Sc Ac lent Cs]
+25.3 +23.4 89 +34 +34 очень
душно
1010.7 1009.9 +25.0
03 21.10 Ю 3 10 км 6/3 600 м
[Cu Sc Ac lent Cs]
+30.8 +27.1 81 +49 +55 опасность
перегрева
1013.6 1012.8
06 21.10 ЮВ 3 10 км 5/3 600 м
[Cu hum Ac lent Cs]
+31.2 +24.7 68 +44 +53 опасность
перегрева
1011.7 1010.9
09 21.10 В 10 10 км 9/3 600 м
[Cu Sc Ac lent Cs]
+30.3 +24.4 71 +43 +43 опасность
перегрева
1009.4 1008.6

 

Местоположение метеостанции Ko Lanta (Таиланд): широта 7.53 долгота 99.05 высота над уровнем моря 3 м.

В архиве по умолчанию представлена погода в Ko Lanta за последнюю неделю. Архивные данные за месяц целиком и за предыдущие месяцы, начиная с января 2011 года, Вы можете получить, выбрав интересующий диапазон дат из раскрывающегося списка и нажав кнопку "Ввод!".


*Определитесь, кто Вы:
робот инопланетянин человек

Внимание! Время в таблицах - всемирное. Для получения местного времени необходимо прибавить поправку, которая в Ko Lanta равна 7 ч.

Смотрите также архив погоды в соседних городах и на ближайших метеорологических станциях:

Погода в Krabi (Таиланд) (62 км)
Погода в Trang (Таиланд) (63 км)
Погода в Phuket (Таиланд) (82 км)
Погода в Phuket Airport (Таиланд) (105 км)
Погода в Chawang (Таиланд) (112 км)
Погода в Prasang (Таиланд) (118 км)
Погода в Nakhonsi Thammarat (Таиланд) (120 км)
Погода в Phatthalung Agromet (Таиланд) (124 км)
Погода в Nakhonsi Thammarat 2 (Таиланд) (149 км)
Погода в Satun (Таиланд) (150 км)

Пояснения к столбцам:

Ветер - указаны скорость ветра в м/с - средняя за 10 мин, порывы в срок и между сроками (в фигурных скобках) и направление, откуда дует ветер: С - северный, СВ - северо-восточный, В - восточный, ЮВ - юго-восточный, Ю - южный, ЮЗ - юго-западный, З - западный, СЗ - северо-западный.
Видимость - горизонтальная дальность видимости в метрах или километрах. При видимости от 1 до 10 км при отсутствии осадков обычно наблюдается дымка, при ухудшении видимости до 1 км и менее - туман. В сухую погоду видимость может ухудшаться дымом, пылью или мглою.
Явления - указаны атмосферные явления, наблюдавшиеся в срок или в последний час перед сроком; фигурными скобками обозначены явления, наблюдавшиеся между сроками (за 1-3 часа до срока); квадратными скобками обозначены град или гололедные отложения с указанием их диаметра в мм.
Облачность - указаны через наклонную черту общая и нижняя облачность в баллах и высота нижней границы облаков в метрах; квадратными скобками обозначены формы облаков: Ci - перистые, Cs - перисто-слоистые, Cc - перисто-кучевые, Ac - высококучевые, As - высокослоистые, Sc - слоисто-кучевые, Ns - слоисто-дождевые, Cu - кучевые, Cb - кучево-дождевые. Подробнее классификацию облаков см. в Атласе облаков (PDF).
T - Температура воздуха - температура, измеренная на высоте 2 м над землей.
Td - Температура точки росы - температура, при понижении до которой содержащийся в воздухе водяной пар достигнет насыщения.
f - Относительная влажность воздуха - влажноcть воздуха, измеренная на высоте 2 м над землей.
Te - Эффективная температура - температура, которую ощущает одетый по сезону человек в тени. Характеристика душности погоды. При расчете учитывается влияние влажности воздуха и скорости ветра на теплоощущения человека.
Tes - Эффективная температура на солнце - температура, которую ощущает человек, с поправкой на солнечный нагрев. Характеристика знойности погоды. Зависит от высоты солнца над горизонтом, облачности и скорости ветра. Ночью, в пасмурную погоду, а также при ветре 12 м/с и более поправка равна нулю.
P - Атмосферное давление - приведенное к уровню моря атмосферное давление.
Po - Атмосферное давление - измеренное на уровне метеостанции атмосферное давление.
Tmin - Минимальная температура - минимум температуры воздуха на высоте 2 м над землей.
Tmax - Максимальная температура - максимум температуры воздуха на высоте 2 м над землей.
R - Количество осадков - Количество выпавших осадков за период времени, мм. При наведении курсора мыши на число - период времени, за который выпало указанное количество осадков.
R24 - Количество осадков - Количество выпавших осадков за 24 часа, мм.
S - Снежный покров - Высота снежного покрова, см. При наведении курсора мыши на число - состояние снежного покрова и степень покрытия местности в баллах.